This demonstration page uses our WeatherBlox Daily Observations layout. Learn more.

Left ArrowRight Arrow

Hourly Observations for December 11, 2015

Temp ( °F °C ) Dew Point ( °F °C ) Humidity (%) Winds ( mph kmh ) Pressure ( in mb ) Visibility ( mi km ) Precip ( " mm )
12:51 am 00:51 Clear 44 6.7 27 -2.8 51 51 N N/A 29.81 1009 10 16 N/A
1:51 am 01:51 Clear 41 5 26 -3.3 55 55 NW 8 13 29.79 1009 10 16 N/A
2:51 am 02:51 Clear 41 5 27 -2.8 57 57 NNE 8 13 29.78 1009 10 16 N/A
3:51 am 03:51 Clear 41 5 26 -3.3 55 55 N N/A 29.75 1008 10 16 N/A
4:51 am 04:51 Clear 37 2.8 25 -3.9 62 62 N N/A 29.73 1007 10 16 N/A
5:51 am 05:51 Clear 39 3.9 26 -3.3 60 60 NNW 6 9 29.74 1007 10 16 N/A
6:51 am 06:51 Clear 38 3.3 26 -3.3 62 62 N N/A 29.78 1008 10 16 N/A
7:51 am 07:51 Sunny 39 3.9 26 -3.3 60 60 NW 9 15 29.80 1009 10 16 N/A
8:51 am 08:51 Sunny 47 8.3 28 -2.2 48 48 VRB 3 6 29.77 1008 10 16 N/A
9:51 am 09:51 Sunny 52 11.1 29 -1.7 41 41 S 8 13 29.76 1008 10 16 N/A
10:51 am 10:51 Sunny 63 17.2 25 -3.9 24 24 ENE 6 9 29.73 1007 10 16 N/A
11:51 am 11:51 Sunny 66 18.9 28 -2.2 24 24 VRB 6 9 29.70 1006 10 16 N/A
12:51 pm 12:51 Sunny 70 21.1 24 -4.4 18 18 E 5 7 29.64 1004 10 16 N/A
1:51 pm 13:51 Sunny 69 20.6 28 -2.2 22 22 W 16 26 29.61 1003 10 16 N/A
2:51 pm 14:51 Sunny 66 18.9 29 -1.7 25 25 WNW 10 17 29.59 1002 10 16 N/A
3:51 pm 15:51 Sunny 65 18.3 27 -2.8 24 24 WNW 16 26 29.58 1002 10 16 N/A
4:51 pm 16:51 Sunny 62 16.7 28 -2.2 28 28 WNW 15 24 29.60 1002 10 16 N/A
5:51 pm 17:51 Clear 62 16.7 28 -2.2 28 28 NW 14 22 29.60 1002 10 16 N/A
6:51 pm 18:51 Clear 60 15.6 27 -2.8 28 28 NNW 9 15 29.60 1002 10 16 N/A
7:51 pm 19:51 Mostly Clear 57 13.9 29 -1.7 34 34 S 6 9 29.61 1003 10 16 N/A
8:51 pm 20:51 Cloudy 61 16.1 28 -2.2 29 29 VRB 7 11 29.59 1002 10 16 N/A
9:51 pm 21:51 Mostly Cloudy 57 13.9 30 -1.1 36 36 SW 7 11 29.58 1002 10 16 N/A
10:51 pm 22:51 Mostly Cloudy 58 14.4 33 0.6 39 39 NNW 10 17 29.56 1001 10 16 N/A
11:51 pm 23:51 Mostly Clear 61 16.1 33 0.6 35 35 S 18 30 29.53 1000 10 16 N/A

Powered by AerisWeather